TimeEST,TemperatureF,Dew PointF,Humidity,Sea Level PressureIn,VisibilityMPH,Wind Direction,Wind SpeedMPH,Gust SpeedMPH,PrecipitationIn,Events,Conditions,WindDirDegrees,DateUTC
12:54 AM,24.1,15.1,69,30.22,10.0,WNW,5.8,-,N/A,,Clear,290,2013-01-03 05:54:00
1:54 AM,25.0,16.0,69,30.21,10.0,NW,4.6,-,N/A,,Clear,310,2013-01-03 06:54:00
2:54 AM,25.0,16.0,69,30.22,10.0,WNW,4.6,-,N/A,,Clear,300,2013-01-03 07:54:00
3:54 AM,26.1,16.0,66,30.22,10.0,West,3.5,-,N/A,,Clear,280,2013-01-03 08:54:00
4:54 AM,25.0,16.0,69,30.20,10.0,Calm,Calm,-,N/A,,Clear,0,2013-01-03 09:54:00
5:54 AM,24.1,16.0,71,30.20,10.0,Calm,Calm,-,N/A,,Clear,0,2013-01-03 10:54:00
6:54 AM,23.0,15.1,72,30.22,10.0,WNW,4.6,-,N/A,,Clear,290,2013-01-03 11:54:00
7:54 AM,23.0,15.1,72,30.23,10.0,Calm,Calm,-,N/A,,Clear,0,2013-01-03 12:54:00
8:54 AM,25.0,16.0,69,30.23,10.0,West,3.5,-,N/A,,Clear,270,2013-01-03 13:54:00
9:54 AM,28.9,15.1,56,30.23,10.0,West,6.9,-,N/A,,Clear,280,2013-01-03 14:54:00
10:54 AM,30.0,15.1,54,30.21,10.0,WSW,3.5,-,N/A,,Clear,250,2013-01-03 15:54:00
11:54 AM,33.1,14.0,46,30.19,10.0,WNW,8.1,-,N/A,,Clear,290,2013-01-03 16:54:00
12:54 PM,33.1,12.0,42,30.15,10.0,West,10.4,-,N/A,,Clear,280,2013-01-03 17:54:00
1:54 PM,34.0,10.0,37,30.14,10.0,WNW,10.4,-,N/A,,Clear,290,2013-01-03 18:54:00
2:54 PM,34.0,10.9,38,30.13,10.0,West,11.5,-,N/A,,Clear,270,2013-01-03 19:54:00
3:54 PM,34.0,12.0,40,30.14,10.0,West,11.5,-,N/A,,Clear,280,2013-01-03 20:54:00
4:54 PM,32.0,12.9,45,30.14,10.0,West,5.8,-,N/A,,Clear,270,2013-01-03 21:54:00
5:54 PM,30.0,14.0,51,30.17,10.0,West,6.9,-,N/A,,Clear,260,2013-01-03 22:54:00
6:54 PM,30.0,15.1,54,30.17,10.0,WSW,4.6,-,N/A,,Clear,250,2013-01-03 23:54:00
7:54 PM,28.9,16.0,58,30.17,10.0,WSW,6.9,-,N/A,,Clear,250,2013-01-04 00:54:00
8:54 PM,28.9,17.1,61,30.16,10.0,WSW,5.8,-,N/A,,Clear,240,2013-01-04 01:54:00
9:54 PM,28.0,18.0,66,30.16,10.0,WSW,5.8,-,N/A,,Clear,240,2013-01-04 02:54:00
10:54 PM,28.9,19.0,67,30.16,10.0,WSW,6.9,-,N/A,,Clear,250,2013-01-04 03:54:00
11:54 PM,28.9,19.9,69,30.16,10.0,WSW,6.9,-,N/A,,Clear,250,2013-01-04 04:54:00